| time (UTC) | temp F | wind direction | speed knots | gust knots | rain 1hr in | rain 24hr in | rain mn in | humidity % | barometer mb |
| 20260905143956 | 78 | 61 | 3.5 | 4.3 | 0.00 | 0.00 | 0.00 | 57 | 1010.4 |
| 20260905142455 | 77 | 267 | 1.7 | 4.3 | 0.00 | 0.00 | 0.00 | 60 | 1010.3 |
| 20260905140954 | 77 | 9 | 3.5 | 6.1 | 0.00 | 0.00 | 0.00 | 61 | 1010.5 |
| 20260905135449 | 76 | 332 | 6.1 | 7.0 | 0.00 | 0.00 | 0.00 | 61 | 1010.3 |
| 20260905133948 | 77 | 322 | 5.2 | 5.2 | 0.00 | 0.00 | 0.00 | 60 | 1010.3 |
| 20260905132444 | 75 | 29 | 2.6 | 7.0 | 0.00 | 0.00 | 0.00 | 62 | 1010.3 |
| 20260905130941 | 75 | 321 | 3.5 | 7.0 | 0.00 | 0.00 | 0.00 | 64 | 1010.5 |
| 20260905125441 | 74 | 327 | 3.5 | 10.4 | 0.00 | 0.00 | 0.00 | 64 | 1010.5 |
| 20260905123940 | 74 | 4 | 6.1 | 6.1 | 0.00 | 0.00 | 0.00 | 64 | 1010.8 |
| 20260905122436 | 74 | 271 | 4.3 | 9.6 | 0.00 | 0.00 | 0.00 | 64 | 1011.0 |
| 20260905120932 | 74 | 29 | 3.5 | 7.0 | 0.00 | 0.00 | 0.00 | 64 | 1010.9 |
| 20260905115427 | 74 | 309 | 0.9 | 6.1 | 0.00 | 0.00 | 0.00 | 63 | 1011.0 |
| 20260905113927 | 73 | 4 | 5.2 | 5.2 | 0.00 | 0.00 | 0.00 | 65 | 1010.6 |
| 20260905112424 | 73 | 327 | 2.6 | 7.8 | 0.00 | 0.00 | 0.00 | 64 | 1010.6 |
| 20260905110920 | 73 | 16 | 3.5 | 4.3 | 0.00 | 0.00 | 0.00 | 64 | 1010.5 |
| 20260905105414 | 73 | 139 | 1.7 | 7.0 | 0.00 | 0.00 | 0.00 | 65 | 1010.2 |
| 20260905103909 | 73 | 6 | 3.5 | 5.2 | 0.00 | 0.00 | 0.00 | 65 | 1009.9 |
| 20260905102409 | 73 | 5 | 1.7 | 6.1 | 0.00 | 0.00 | 0.00 | 64 | 1009.8 |
| 20260905100908 | 73 | 63 | 1.7 | 3.5 | 0.00 | 0.00 | 0.00 | 64 | 1009.8 |
| 20260905095404 | 74 | 350 | 2.6 | 3.5 | 0.00 | 0.00 | 0.00 | 64 | 1009.9 |
| 20260905093904 | 74 | 354 | 2.6 | 5.2 | 0.00 | 0.00 | 0.00 | 64 | 1009.8 |
| 20260905092402 | 74 | 356 | 1.7 | 7.8 | 0.00 | 0.00 | 0.00 | 63 | 1009.6 |
| 20260905090901 | 74 | 4 | 3.5 | 4.3 | 0.00 | 0.00 | 0.00 | 62 | 1009.7 |
| 20260905085356 | 74 | 6 | 3.5 | 7.8 | 0.00 | 0.00 | 0.00 | 61 | 1009.7 |
| 20260905083852 | 74 | 326 | 3.5 | 7.0 | 0.00 | 0.00 | 0.00 | 61 | 1009.7 |
| 20260905082351 | 75 | 311 | 2.6 | 3.5 | 0.00 | 0.00 | 0.00 | 60 | 1009.6 |
| 20260905080852 | 75 | 27 | 2.6 | 6.1 | 0.00 | 0.00 | 0.00 | 60 | 1009.5 |
| 20260905075351 | 75 | 325 | 2.6 | 5.2 | 0.00 | 0.00 | 0.00 | 60 | 1009.7 |
| 20260905073847 | 76 | 328 | 5.2 | 6.1 | 0.00 | 0.00 | 0.00 | 58 | 1009.7 |
| 20260905072344 | 76 | 34 | 7.0 | 7.8 | 0.00 | 0.00 | 0.00 | 58 | 1009.7 |
| 20260905070842 | 76 | 36 | 7.0 | 8.7 | 0.00 | 0.00 | 0.00 | 57 | 1009.9 |
| 20260905065342 | 76 | 340 | 5.2 | 11.3 | 0.00 | 0.00 | 0.00 | 57 | 1009.8 |
| 20260905063838 | 77 | 333 | 1.7 | 5.2 | 0.00 | 0.00 | 0.00 | 59 | 1009.8 |
| 20260905062336 | 76 | 40 | 1.7 | 4.3 | 0.00 | 0.00 | 0.00 | 61 | 1009.9 |
| 20260905060831 | 77 | 32 | 7.0 | 7.8 | 0.00 | 0.00 | 0.00 | 60 | 1009.8 |
| 20260905055328 | 77 | 347 | 3.5 | 3.5 | 0.00 | 0.00 | 0.00 | 59 | 1010.1 |
| 20260905053823 | 77 | 13 | 3.5 | 3.5 | 0.00 | 0.00 | 0.00 | 59 | 1010.3 |
| 20260905052319 | 78 | 329 | 6.1 | 8.7 | 0.00 | 0.00 | 0.00 | 58 | 1010.4 |
| 20260905050817 | 78 | 355 | 1.7 | 6.1 | 0.00 | 0.00 | 0.00 | 58 | 1010.6 |
| 20260905045315 | 78 | 9 | 0.0 | 5.2 | 0.00 | 0.00 | 0.00 | 59 | 1010.5 |
| 20260905043815 | 78 | 333 | 3.5 | 6.1 | 0.00 | 0.00 | 0.00 | 59 | 1010.6 |
| 20260905042310 | 78 | 305 | 3.5 | 10.4 | 0.00 | 0.00 | 0.00 | 59 | 1010.4 |
| 20260905040808 | 78 | 3 | 4.3 | 5.2 | 0.00 | 0.00 | 0.00 | 61 | 1010.8 |
| 20260905035306 | 78 | 336 | 1.7 | 5.2 | 0.00 | 0.01 | 0.01 | 61 | 1010.7 |
| 20260905033758 | 79 | 347 | 3.5 | 6.1 | 0.00 | 0.01 | 0.01 | 60 | 1010.5 |
| 20260905032255 | 79 | 85 | 3.5 | 3.5 | 0.00 | 0.01 | 0.01 | 60 | 1010.5 |
| 20260905030752 | 79 | 350 | 3.5 | 9.6 | 0.00 | 0.01 | 0.01 | 60 | 1010.6 |
| 20260905025249 | 79 | 40 | 0.9 | 9.6 | 0.00 | 0.01 | 0.01 | 58 | 1010.5 |
| 20260905023747 | 80 | 316 | 1.7 | 9.6 | 0.00 | 0.01 | 0.01 | 58 | 1010.4 |
| 20260905022242 | 80 | 17 | 1.7 | 6.1 | 0.00 | 0.01 | 0.01 | 59 | 1010.5 |
| 20260905020737 | 80 | 4 | 2.6 | 5.2 | 0.00 | 0.01 | 0.01 | 59 | 1010.5 |
| 20260905015232 | 80 | 311 | 3.5 | 5.2 | 0.00 | 0.01 | 0.01 | 58 | 1010.7 |
| 20260905013728 | 80 | 281 | 0.9 | 3.5 | 0.00 | 0.01 | 0.01 | 58 | 1010.4 |
| 20260905012227 | 81 | 2 | 3.5 | 3.5 | 0.00 | 0.01 | 0.01 | 56 | 1010.7 |
| 20260905010725 | 81 | 325 | 1.7 | 8.7 | 0.00 | 0.01 | 0.01 | 56 | 1010.5 |
| 20260905005224 | 82 | 349 | 4.3 | 7.0 | 0.00 | 0.01 | 0.01 | 56 | 1010.5 |
| 20260905003720 | 82 | 33 | 1.7 | 5.2 | 0.00 | 0.01 | 0.01 | 56 | 1010.5 |
| 20260905002217 | 82 | 22 | 4.3 | 6.1 | 0.00 | 0.01 | 0.01 | 55 | 1010.4 |
| 20260905000712 | 82 | 348 | 3.5 | 7.0 | 0.00 | 0.01 | 0.01 | 55 | 1010.4 |
| 20260904235208 | 82 | 303 | 3.5 | 3.5 | 0.00 | 0.01 | 0.01 | 55 | 1010.1 |
| 20260904233706 | 83 | 330 | 1.7 | 3.5 | 0.00 | 0.01 | 0.01 | 55 | 1010.1 |
| 20260904232206 | 83 | 355 | 3.5 | 8.7 | 0.00 | 0.01 | 0.01 | 55 | 1009.9 |
| 20260904230702 | 84 | 319 | 3.5 | 7.0 | 0.00 | 0.01 | 0.01 | 53 | 1010.0 |
| 20260904225202 | 84 | 357 | 3.5 | 6.1 | 0.00 | 0.01 | 0.01 | 51 | 1009.9 |
| 20260904223702 | 84 | 9 | 9.6 | 10.4 | 0.00 | 0.01 | 0.01 | 51 | 1009.9 |
| 20260904222200 | 85 | 12 | 4.3 | 7.8 | 0.00 | 0.01 | 0.01 | 50 | 1009.8 |
| 20260904220701 | 87 | 14 | 6.1 | 6.1 | 0.00 | 0.01 | 0.01 | 47 | 1009.6 |
| 20260904215158 | 89 | 325 | 3.5 | 3.5 | 0.00 | 0.01 | 0.01 | 46 | 1009.8 |
| 20260904213657 | 88 | 329 | 1.7 | 6.1 | 0.00 | 0.01 | 0.01 | 47 | 1009.6 |
| 20260904212155 | 87 | 112 | 3.5 | 7.8 | 0.00 | 0.01 | 0.01 | 47 | 1009.5 |
| 20260904210651 | 88 | 55 | 1.7 | 7.0 | 0.00 | 0.01 | 0.01 | 46 | 1009.5 |
| 20260904205149 | 88 | 83 | 0.9 | 9.6 | 0.00 | 0.01 | 0.01 | 48 | 1009.7 |
| 20260904203649 | 89 | 167 | 0.9 | 6.1 | 0.00 | 0.01 | 0.01 | 47 | 1009.8 |
| 20260904202143 | 88 | 359 | 5.2 | 8.7 | 0.00 | 0.01 | 0.01 | 48 | 1009.9 |
| 20260904200643 | 86 | 270 | 3.5 | 10.4 | 0.00 | 0.01 | 0.01 | 49 | 1010.0 |
| 20260904195143 | 88 | 326 | 4.3 | 9.6 | 0.00 | 0.01 | 0.01 | 48 | 1010.5 |
| 20260904193638 | 88 | 281 | 4.3 | 8.7 | 0.00 | 0.01 | 0.01 | 48 | 1010.4 |
| 20260904192136 | 87 | 329 | 1.7 | 9.6 | 0.00 | 0.01 | 0.01 | 48 | 1010.5 |
| 20260904190637 | 87 | 322 | 2.6 | 8.7 | 0.00 | 0.01 | 0.01 | 49 | 1010.7 |
| 20260904185135 | 87 | 315 | 4.3 | 9.6 | 0.00 | 0.01 | 0.01 | 49 | 1010.9 |
| 20260904183631 | 86 | 3 | 9.6 | 13.9 | 0.00 | 0.01 | 0.01 | 51 | 1010.8 |
| 20260904182127 | 85 | 350 | 1.7 | 11.3 | 0.00 | 0.01 | 0.01 | 50 | 1010.9 |
| 20260904180624 | 86 | 337 | 7.8 | 11.3 | 0.00 | 0.01 | 0.01 | 49 | 1011.0 |
| 20260904175123 | 87 | 305 | 2.6 | 10.4 | 0.00 | 0.01 | 0.01 | 49 | 1010.9 |
| 20260904173621 | 86 | 342 | 4.3 | 9.6 | 0.00 | 0.01 | 0.01 | 51 | 1010.8 |
| 20260904172117 | 87 | 323 | 7.8 | 13.0 | 0.00 | 0.01 | 0.01 | 50 | 1010.5 |
| 20260904170616 | 86 | 348 | 4.3 | 9.6 | 0.00 | 0.01 | 0.01 | 52 | 1011.1 |
| 20260904165115 | 86 | 271 | 0.9 | 5.2 | 0.00 | 0.01 | 0.01 | 52 | 1011.0 |
| 20260904163612 | 86 | 326 | 3.5 | 8.7 | 0.00 | 0.01 | 0.01 | 53 | 1011.0 |
| 20260904162108 | 87 | 3 | 3.5 | 9.6 | 0.00 | 0.01 | 0.01 | 52 | 1011.1 |
| 20260904160606 | 86 | 307 | 13.0 | 13.9 | 0.00 | 0.01 | 0.01 | 52 | 1011.1 |
| 20260904155101 | 85 | 344 | 6.1 | 11.3 | 0.00 | 0.01 | 0.01 | 54 | 1011.2 |
| 20260904153601 | 84 | 349 | 7.0 | 14.8 | 0.00 | 0.01 | 0.01 | 54 | 1011.7 |
| 20260904152100 | 85 | 338 | 10.4 | 11.3 | 0.00 | 0.01 | 0.01 | 56 | 1011.5 |
| 20260904150555 | 85 | 24 | 8.7 | 11.3 | 0.00 | 0.01 | 0.01 | 57 | 1011.7 |
| 20260904145050 | 84 | 287 | 1.7 | 5.2 | 0.00 | 0.01 | 0.01 | 59 | 1011.6 |